Location: Arboucave
(43.6130°N, 0.4343°W)
Time: 11:56:36
(UTC+00:00)

Cosmos 371 Rocket - Pass Details

Date: 17 November 2025
Orbit: 674 x 690 km, 74.0° (Epoch: 11 December)

Event Time Altitude Azimuth Distance (km) Brightness Sun altitude
Rises 18:04:00 0° 182° (S) 3,025 6.8 -16.1°
Reaches altitude 10° 18:06:21 10° 176° (S) 2,117 5.9 -16.5°
Maximum altitude 18:10:53 45° 104° (ESE) 927 3.5 -17.4°
Enters shadow 18:12:52 29° 51° (NE) 1,247 4.1 -17.7°
